Location: Academy at Carrie F Thomas
(32.8490°N, 97.2053°W)
Time: 05:32:16
(UTC+00:00)

Meteor 2-15 Rocket - Pass Details

Date: 04 July 2022
Orbit: 939 x 956 km, 82.5° (Epoch: 12 August)

Event Time Altitude Azimuth Distance (km) Brightness Sun altitude
Rises 09:48:26 0° 14° (NNE) 3,637 8.5 -17.4°
Reaches altitude 10° 09:52:06 10° 36° (NE) 2,685 8.1 -16.9°
Maximum altitude 09:55:39 16° 72° (ENE) 2,289 7.4 -16.3°
Drops below altitude 10° 09:59:10 10° 107° (ESE) 2,671 7.2 -15.8°
Sets 10:02:47 0° 129° (SE) 3,608 7.6 -15.2°
